Location: Beuvrequen
(50.8014°N, 1.6652°E)
Time: 03:28:58
(UTC+00:00)

CSL-04 Rocket - Pass Details

Date: 16 October 2021
Orbit: 805 x 860 km, 98.9° (Epoch: 28 November)

Event Time Altitude Azimuth Distance (km) Brightness Sun altitude
Exits shadow 19:30:10 19° 179° (S) 1,945 5.4 -24.5°
Maximum altitude 19:34:14 64° 257° (WSW) 947 4.1 -25.1°
Drops below altitude 10° 19:39:47 10° 340° (NNW) 2,509 6.6 -26.0°
Sets 19:42:12 0° 343° (NNW) 3,452 7.4 -26.3°
